TimeEST,TemperatureF,Dew PointF,Humidity,Sea Level PressureIn,VisibilityMPH,Wind Direction,Wind SpeedMPH,Gust SpeedMPH,PrecipitationIn,Events,Conditions,WindDirDegrees,DateUTC
12:35 AM,41.0,26.6,57,29.96,10.0,ESE,3.5,-,N/A,,Overcast,110,2013-03-05 05:35:00
12:55 AM,39.2,28.4,65,29.95,10.0,East,3.5,-,N/A,,Overcast,100,2013-03-05 05:55:00
1:15 AM,41.0,26.6,57,29.94,10.0,East,4.6,-,N/A,,Overcast,90,2013-03-05 06:15:00
1:35 AM,41.0,28.4,61,29.94,10.0,East,3.5,-,N/A,,Overcast,90,2013-03-05 06:35:00
1:55 AM,41.0,28.4,61,29.93,10.0,East,3.5,-,N/A,,Overcast,90,2013-03-05 06:55:00
2:15 AM,41.0,28.4,61,29.93,10.0,East,3.5,-,N/A,,Overcast,90,2013-03-05 07:15:00
2:55 AM,42.8,26.6,53,29.91,10.0,SSE,4.6,-,N/A,,Overcast,150,2013-03-05 07:55:00
3:15 AM,46.4,26.6,46,29.90,10.0,SSE,6.9,-,N/A,,Overcast,160,2013-03-05 08:15:00
3:35 AM,46.4,26.6,46,29.89,10.0,ESE,4.6,-,N/A,,Overcast,120,2013-03-05 08:35:00
3:55 AM,44.6,28.4,53,29.88,10.0,SE,6.9,-,N/A,,Overcast,140,2013-03-05 08:55:00
5:15 AM,46.4,26.6,46,29.88,10.0,South,3.5,-,N/A,,Overcast,170,2013-03-05 10:15:00
5:35 AM,44.6,32.0,61,29.89,10.0,South,4.6,-,N/A,,Overcast,190,2013-03-05 10:35:00
5:55 AM,42.8,33.8,70,29.89,10.0,South,5.8,-,N/A,,Overcast,180,2013-03-05 10:55:00
6:15 AM,42.8,33.8,70,29.89,10.0,South,3.5,-,N/A,,Overcast,180,2013-03-05 11:15:00
6:35 AM,41.0,35.6,81,29.90,10.0,SE,3.5,-,N/A,,Overcast,140,2013-03-05 11:35:00
7:35 AM,39.2,37.4,93,29.88,10.0,SSE,4.6,-,N/A,,Overcast,150,2013-03-05 12:35:00
8:15 AM,41.0,39.2,93,29.87,7.0,SSE,5.8,-,N/A,,Overcast,150,2013-03-05 13:15:00
8:35 AM,41.0,39.2,93,29.86,4.0,SSE,6.9,-,N/A,,Overcast,150,2013-03-05 13:35:00
8:55 AM,42.8,41.0,93,29.85,5.0,SSE,8.1,-,N/A,,Overcast,150,2013-03-05 13:55:00
9:15 AM,42.8,41.0,93,29.85,7.0,SSE,8.1,-,N/A,,Overcast,160,2013-03-05 14:15:00
9:35 AM,42.8,41.0,93,29.83,5.0,SE,8.1,-,N/A,,Overcast,140,2013-03-05 14:35:00
9:55 AM,42.8,41.0,93,29.83,4.0,ESE,4.6,-,N/A,,Overcast,110,2013-03-05 14:55:00
10:15 AM,42.8,41.0,93,29.82,5.0,SE,5.8,-,N/A,,Overcast,130,2013-03-05 15:15:00
10:35 AM,42.8,41.0,93,29.81,3.0,SE,6.9,-,N/A,,Overcast,130,2013-03-05 15:35:00
11:15 AM,44.6,42.8,93,29.78,10.0,SE,5.8,-,N/A,,Overcast,130,2013-03-05 16:15:00
11:35 AM,44.6,42.8,93,29.76,10.0,SE,6.9,-,N/A,,Overcast,130,2013-03-05 16:35:00
11:55 AM,44.6,42.8,93,29.74,10.0,SE,6.9,-,N/A,,Overcast,130,2013-03-05 16:55:00
12:15 PM,44.6,42.8,93,29.73,10.0,SSE,10.4,-,N/A,,Overcast,150,2013-03-05 17:15:00
12:35 PM,44.6,42.8,93,29.72,7.0,SSE,11.5,-,N/A,,Overcast,150,2013-03-05 17:35:00
12:55 PM,44.6,42.8,93,29.71,5.0,SSE,11.5,17.3,N/A,,Overcast,150,2013-03-05 17:55:00
1:15 PM,44.6,42.8,93,29.70,10.0,South,9.2,-,N/A,,Overcast,170,2013-03-05 18:15:00
1:35 PM,46.4,42.8,87,29.68,7.0,South,6.9,-,N/A,,Overcast,170,2013-03-05 18:35:00
1:55 PM,46.4,42.8,87,29.65,10.0,SSE,8.1,-,N/A,,Overcast,150,2013-03-05 18:55:00
2:15 PM,46.4,44.6,93,29.63,10.0,South,9.2,-,N/A,,Overcast,170,2013-03-05 19:15:00
2:35 PM,46.4,44.6,93,29.61,10.0,South,6.9,-,N/A,,Overcast,170,2013-03-05 19:35:00
2:55 PM,48.2,44.6,87,29.60,10.0,SSE,6.9,-,N/A,,Overcast,160,2013-03-05 19:55:00
3:15 PM,48.2,44.6,87,29.59,10.0,South,9.2,-,N/A,,Overcast,180,2013-03-05 20:15:00
3:35 PM,48.2,44.6,87,29.58,10.0,SSE,9.2,-,N/A,,Overcast,160,2013-03-05 20:35:00
3:55 PM,48.2,46.4,93,29.57,10.0,South,8.1,-,N/A,,Overcast,170,2013-03-05 20:55:00
4:15 PM,48.2,46.4,93,29.56,10.0,South,5.8,-,N/A,,Overcast,180,2013-03-05 21:15:00
4:35 PM,48.2,46.4,93,29.56,7.0,Calm,Calm,-,N/A,,Overcast,0,2013-03-05 21:35:00
4:55 PM,48.2,46.4,93,29.55,5.0,Calm,Calm,-,N/A,,Overcast,0,2013-03-05 21:55:00
5:15 PM,48.2,46.4,93,29.56,4.0,West,6.9,-,N/A,,Overcast,270,2013-03-05 22:15:00
5:35 PM,48.2,46.4,93,29.56,5.0,West,11.5,-,N/A,,Overcast,260,2013-03-05 22:35:00
5:55 PM,46.4,44.6,93,29.58,7.0,West,21.9,27.6,N/A,,Overcast,270,2013-03-05 22:55:00
6:15 PM,41.0,37.4,87,29.61,7.0,West,34.5,43.7,N/A,,Overcast,270,2013-03-05 23:15:00
6:35 PM,37.4,35.6,93,29.64,7.0,West,27.6,40.3,N/A,,Overcast,280,2013-03-05 23:35:00
6:55 PM,35.6,32.0,87,29.68,5.0,West,31.1,42.6,N/A,,Overcast,270,2013-03-05 23:55:00
7:15 PM,32.0,32.0,100,29.71,1.0,West,25.3,35.7,N/A,,Overcast,260,2013-03-06 00:15:00
7:35 PM,32.0,30.2,93,29.72,0.5,West,21.9,31.1,N/A,,Overcast,270,2013-03-06 00:35:00
7:55 PM,32.0,30.2,93,29.73,0.5,West,25.3,32.2,N/A,,Overcast,260,2013-03-06 00:55:00
8:15 PM,32.0,30.2,93,29.75,5.0,West,21.9,34.5,N/A,,Overcast,270,2013-03-06 01:15:00
8:35 PM,32.0,30.2,93,29.76,10.0,West,27.6,34.5,N/A,,Overcast,260,2013-03-06 01:35:00
8:55 PM,32.0,30.2,93,29.76,10.0,West,24.2,33.4,N/A,,Overcast,270,2013-03-06 01:55:00
9:15 PM,32.0,28.4,87,29.77,10.0,West,19.6,34.5,N/A,,Overcast,280,2013-03-06 02:15:00
9:35 PM,32.0,30.2,93,29.77,7.0,West,20.7,31.1,N/A,,Overcast,270,2013-03-06 02:35:00
9:55 PM,32.0,28.4,87,29.78,10.0,West,21.9,34.5,N/A,,Overcast,270,2013-03-06 02:55:00
10:15 PM,32.0,28.4,87,29.78,10.0,West,28.8,38.0,N/A,,Overcast,280,2013-03-06 03:15:00
10:35 PM,32.0,28.4,87,29.79,7.0,West,20.7,28.8,N/A,,Overcast,280,2013-03-06 03:35:00
10:55 PM,32.0,28.4,87,29.79,4.0,West,19.6,33.4,N/A,,Overcast,270,2013-03-06 03:55:00
11:15 PM,30.2,28.4,93,29.79,5.0,West,26.5,33.4,N/A,,Overcast,270,2013-03-06 04:15:00
11:35 PM,30.2,26.6,86,29.79,7.0,West,24.2,33.4,N/A,,Overcast,260,2013-03-06 04:35:00
11:55 PM,30.2,26.6,86,29.79,4.0,West,21.9,29.9,N/A,,Overcast,260,2013-03-06 04:55:00